Weather History for Sturgeon Bay, WI

Change the Weather History Date:

Sunday, April 13, 2014

  Actual Average Record
Temperature  
Mean Temperature 40 °F -  
Max Temperature 48 °F 50 °F 76 °F (1941)
Min Temperature 33 °F 33 °F 16 °F (1940)
Degree Days  
Heating Degree Days 24    
Moisture  
Dew Point 35 °F    
Average Humidity 84    
Maximum Humidity 93    
Minimum Humidity 71    
Precipitation  
Precipitation 0.42 in - - ()
Sea Level Pressure  
Sea Level Pressure 29.74 in    
Wind  
Wind Speed 10 mph (NNE)    
Max Wind Speed 21 mph    
Max Gust Speed 28 mph    
Visibility 7 miles    
Events      
Averages and records for this station are not official NWS values.
T = Trace of Precipitation, MM = Missing Value Source: NWS Daily Summary

Daily Weather History Graph

Daily Weather History Graph

Search for Another Location

Airport:

Trip Planner

Search our weather history database for the weather conditions in past years. The results will help you decide how hot, cold, wet, or windy it might be!

Date:

Astronomy

Apr. 13, 2014 Rise Set
Actual Time 6:08 AM CDT 7:32 PM CDT
Civil Twilight 5:38 AM CDT 8:02 PM CDT
Nautical Twilight 5:01 AM CDT 8:39 PM CDT
Astronomical Twilight 4:22 AM CDT 9:19 PM CDT
Moon 6:06 PM CDT (4/13) 5:11 AM CDT (4/13)
Length of Visible Light 14h 24m
Length of Day
13h 23m
Waxing Gibbous, 97% of the Moon is Illuminated
Apr 13
Waxing Gibbous
Apr 15
Full
Apr 22
Last Quarter
Apr 29
New
May 6
First Quarter

Hourly Weather History & Observations

Time (CDT) Temp. Windchill Dew Point Humidity Pressure Visibility Wind Dir Wind Speed Gust Speed Precip Events Conditions
12:15 AM 39.2 °F 33.6 °F 35.6 °F 87% 29.76 in 7.0 mi ENE 8.1 mph - N/A   Overcast
12:35 AM 39.2 °F 35.0 °F 35.6 °F 87% 29.75 in 7.0 mi ENE 5.8 mph - N/A   Overcast
12:55 AM 39.2 °F 34.2 °F 37.4 °F 93% 29.75 in 9.0 mi ENE 6.9 mph - N/A   Overcast
1:15 AM 39.2 °F 34.2 °F 37.4 °F 93% 29.75 in 10.0 mi East 6.9 mph - N/A   Overcast
1:35 AM 39.2 °F 35.0 °F 35.6 °F 87% 29.74 in 10.0 mi NNE 5.8 mph - N/A   Overcast
1:55 AM 39.2 °F 35.9 °F 35.6 °F 87% 29.74 in 9.0 mi North 4.6 mph - N/A   Overcast
2:15 AM 37.4 °F 32.8 °F 35.6 °F 93% 29.73 in 6.0 mi NW 5.8 mph - N/A   Overcast
2:35 AM 35.6 °F 28.6 °F 32.0 °F 87% 29.72 in 3.0 mi North 9.2 mph - N/A   Overcast
2:55 AM 35.6 °F 28.6 °F 32.0 °F 87% 29.73 in 1.5 mi North 9.2 mph - N/A   Overcast
3:15 AM 35.6 °F 29.2 °F 32.0 °F 87% 29.72 in 0.8 mi North 8.1 mph - N/A   Overcast
3:35 AM 35.6 °F 29.9 °F 32.0 °F 87% 29.72 in 1.2 mi NNW 6.9 mph - N/A   Overcast
3:55 AM 35.6 °F 30.7 °F 30.2 °F 81% 29.72 in 0.8 mi NNW 5.8 mph - N/A   Overcast
4:15 AM 35.6 °F 32.8 °F 32.0 °F 87% 29.71 in 1.0 mi North 3.5 mph - N/A   Overcast
4:35 AM 35.6 °F 29.2 °F 32.0 °F 87% 29.72 in 1.0 mi North 8.1 mph - 0.01 in   Overcast
4:55 AM 35.6 °F 28.6 °F 30.2 °F 81% 29.72 in 0.8 mi NNW 9.2 mph - 0.01 in   Overcast
5:15 AM 33.8 °F 26.4 °F 30.2 °F 87% 29.75 in 0.5 mi North 9.2 mph - N/A   Overcast
5:35 AM 33.8 °F 25.3 °F 30.2 °F 87% 29.71 in 0.5 mi North 11.5 mph - N/A   Overcast
5:55 AM 33.8 °F 25.8 °F 32.0 °F 93% 29.68 in 0.5 mi North 10.4 mph - N/A   Overcast
6:15 AM 35.6 °F 28.0 °F 32.0 °F 87% 29.70 in 0.8 mi North 10.4 mph - N/A   Overcast
6:35 AM 33.8 °F 24.8 °F 30.2 °F 87% 29.73 in 0.8 mi North 12.7 mph - N/A   Overcast
6:55 AM 35.6 °F 26.6 °F 30.2 °F 81% 29.75 in 0.8 mi NNW 13.8 mph - N/A   Overcast
7:15 AM 35.6 °F 26.2 °F 32.0 °F 87% 29.74 in 0.8 mi North 15.0 mph - N/A   Overcast
7:35 AM 35.6 °F 26.2 °F 32.0 °F 87% 29.74 in 1.2 mi North 15.0 mph - N/A   Overcast
7:55 AM 35.6 °F 28.0 °F 33.8 °F 93% 29.76 in 1.2 mi North 10.4 mph - N/A   Overcast
8:15 AM 35.6 °F 27.1 °F 33.8 °F 93% 29.76 in 2.0 mi North 12.7 mph - N/A   Overcast
8:35 AM 35.6 °F 27.5 °F 33.8 °F 93% 29.76 in 1.8 mi North 11.5 mph - N/A   Overcast
8:55 AM 35.6 °F 27.5 °F 33.8 °F 93% 29.76 in 1.0 mi North 11.5 mph - N/A   Overcast
9:15 AM 37.4 °F 29.3 °F 33.8 °F 87% 29.78 in 1.2 mi North 12.7 mph - N/A   Overcast
9:35 AM 37.4 °F 29.3 °F 35.6 °F 93% 29.78 in 3.0 mi North 12.7 mph - N/A   Overcast
9:55 AM 37.4 °F 29.8 °F 35.6 °F 93% 29.79 in 4.0 mi North 11.5 mph - N/A   Overcast
10:55 AM 39.2 °F 30.8 °F 37.4 °F 93% 29.76 in 10.0 mi North 15.0 mph - N/A   Overcast
11:15 AM 41.0 °F 33.9 °F 37.4 °F 87% 29.77 in 10.0 mi North 12.7 mph - N/A   Overcast
11:35 AM 42.8 °F 36.6 °F 37.4 °F 81% 29.77 in 10.0 mi North 11.5 mph - N/A   Overcast
11:55 AM 42.8 °F 36.2 °F 37.4 °F 81% 29.80 in 10.0 mi North 12.7 mph - N/A   Overcast
12:15 PM 42.8 °F 36.6 °F 37.4 °F 81% 29.81 in 10.0 mi North 11.5 mph - N/A   Overcast
12:35 PM 44.6 °F 39.2 °F 37.4 °F 76% 29.81 in 10.0 mi North 10.4 mph - N/A   Overcast
12:55 PM 44.6 °F 39.2 °F 37.4 °F 76% 29.80 in 10.0 mi NNW 10.4 mph - N/A   Mostly Cloudy
1:15 PM 46.4 °F 41.1 °F 39.2 °F 76% 29.80 in 10.0 mi NNW 11.5 mph - N/A   Overcast
1:35 PM 46.4 °F 41.5 °F 39.2 °F 76% 29.80 in 10.0 mi NNW 10.4 mph - N/A   Overcast
1:55 PM 46.4 °F 40.1 °F 39.2 °F 76% 29.78 in 10.0 mi North 15.0 mph - N/A   Overcast
2:15 PM 46.4 °F 40.1 °F 39.2 °F 76% 29.77 in 10.0 mi North 15.0 mph - N/A   Mostly Cloudy
2:35 PM 48.2 °F - 39.2 °F 71% 29.79 in 10.0 mi North 12.7 mph 16.1 mph N/A   Partly Cloudy
2:55 PM 48.2 °F - 39.2 °F 71% 29.79 in 10.0 mi North 10.4 mph - N/A   Mostly Cloudy
3:15 PM 48.2 °F - 39.2 °F 71% 29.78 in 10.0 mi North 10.4 mph - N/A   Overcast
3:35 PM 48.2 °F - 39.2 °F 71% 29.79 in 10.0 mi ESE 5.8 mph - N/A   Overcast
3:55 PM 46.4 °F 43.5 °F 39.2 °F 76% 29.78 in 10.0 mi SE 5.8 mph - N/A   Overcast
4:15 PM 46.4 °F 44.3 °F 37.4 °F 71% 29.78 in 10.0 mi ESE 4.6 mph - N/A   Overcast
4:35 PM 46.4 °F 42.4 °F 39.2 °F 76% 29.77 in 10.0 mi ESE 8.1 mph - N/A   Overcast
4:55 PM 44.6 °F 40.7 °F 37.4 °F 76% 29.77 in 10.0 mi ESE 6.9 mph - N/A   Overcast
5:15 PM 44.6 °F 41.4 °F 37.4 °F 76% 29.77 in 10.0 mi East 5.8 mph - N/A   Overcast
5:35 PM 42.8 °F 38.6 °F 37.4 °F 81% 29.76 in 10.0 mi East 6.9 mph - N/A   Overcast
5:55 PM 42.8 °F 38.6 °F 35.6 °F 76% 29.75 in 10.0 mi East 6.9 mph - N/A   Overcast
6:15 PM 42.8 °F 38.6 °F 35.6 °F 76% 29.73 in 10.0 mi ENE 6.9 mph - N/A   Overcast
6:35 PM 42.8 °F 37.0 °F 37.4 °F 81% 29.71 in 10.0 mi ENE 10.4 mph - N/A   Overcast
6:55 PM 41.0 °F 35.8 °F 35.6 °F 81% 29.71 in 10.0 mi East 8.1 mph - N/A   Overcast
7:15 PM 41.0 °F 37.1 °F 35.6 °F 81% 29.71 in 10.0 mi ENE 5.8 mph - N/A   Overcast
7:35 PM 41.0 °F 36.4 °F 37.4 °F 87% 29.73 in 10.0 mi ESE 6.9 mph - N/A   Overcast
7:55 PM 41.0 °F 36.4 °F 37.4 °F 87% 29.74 in 10.0 mi ENE 6.9 mph - 0.03 in   Overcast
8:15 PM 39.2 °F 32.5 °F 37.4 °F 93% 29.73 in 8.0 mi NE 10.4 mph - 0.04 in   Overcast
8:35 PM 39.2 °F 30.8 °F 37.4 °F 93% 29.74 in 10.0 mi NE 15.0 mph - 0.08 in   Overcast
8:55 PM 39.2 °F 29.8 °F 37.4 °F 93% 29.71 in 10.0 mi NNE 18.4 mph 26.5 mph 0.13 in   Overcast
9:15 PM 39.2 °F 30.2 °F 35.6 °F 87% 29.71 in 10.0 mi NNE 17.3 mph 26.5 mph 0.04 in   Overcast
9:35 PM 39.2 °F 29.6 °F 35.6 °F 87% 29.70 in 10.0 mi NNE 19.6 mph 26.5 mph 0.09 in   Overcast
9:55 PM 37.4 °F 28.2 °F 33.8 °F 87% 29.70 in 10.0 mi North 16.1 mph 23.0 mph 0.14 in   Overcast
10:15 PM 37.4 °F 27.8 °F 33.8 °F 87% 29.70 in 10.0 mi North 17.3 mph 23.0 mph 0.03 in   Overcast
10:35 PM 37.4 °F 28.2 °F 35.6 °F 93% 29.68 in 10.0 mi North 16.1 mph 25.3 mph 0.08 in   Overcast
10:55 PM 37.4 °F 28.5 °F 33.8 °F 87% 29.66 in 10.0 mi North 15.0 mph 25.3 mph 0.09 in   Overcast
11:15 PM 37.4 °F 27.5 °F 33.8 °F 87% 29.65 in 10.0 mi North 18.4 mph - N/A   Overcast
11:35 PM 37.4 °F 26.9 °F 33.8 °F 87% 29.63 in 9.0 mi North 20.7 mph 27.6 mph 0.02 in   Overcast
11:55 PM 35.6 °F 25.5 °F 32.0 °F 87% 29.63 in 9.0 mi North 17.3 mph 25.3 mph 0.02 in   Overcast